GW3951 Weather Reports


Display with metric or nautical units.
time (UTC)temp
F
wind
direction
speed
MPH
gust
MPH
rain 1hr
in
rain 24hr
in
rain mn
in
humidity
%
barometer
mb
20260506123028 68 180 4.0 10.0 0.00 0.00 0.00 85 1016.7
20260506121527 67 199 4.0 6.0 0.00 0.00 0.00 87 1016.4
20260506120020 65 209 3.0 7.0 0.00 0.00 0.00 89 1016.4
20260506114511 63 108 0.0 2.0 0.00 0.00 0.00 90 1016.4
20260506113016 58 123 0.0 2.0 0.00 0.00 0.00 92 1016.2
20260506111519 55 91 0.0 0.0 0.00 0.00 0.00 94 1016.1
20260506110028 0 0.0 0.0 0.00 0.00 0.00 1015.9
20260506104528 0 0.0 0.0 0.00 0.00 0.00 1016.0
20260506103030 0 0.0 0.0 0.00 0.00 0.00 1016.1
20260506101531 0 0.0 0.0 0.00 0.00 0.00 1016.1
20260506100030 0 0.0 0.0 0.00 0.00 0.00 1015.8
20260506094529 0 0.0 0.0 0.00 0.00 0.00 1015.9
20260506093034 0 185 0.0 0.0 0.00 0.00 0.00 93 1015.8
20260506091527 54 185 0.0 0.0 0.00 0.00 0.00 93 1015.8
20260506090020 55 185 0.0 0.0 0.00 0.00 0.00 93 1016.1
20260506084532 55 185 0.0 0.0 0.00 0.00 0.00 93 1015.9
20260506083020 55 185 0.0 0.0 0.00 0.00 0.00 93 1016.2
20260506081526 55 185 0.0 0.0 0.00 0.00 0.00 93 1016.3
20260506073022 55 185 0.0 0.0 0.00 0.00 0.00 93 1015.9
20260506071526 55 185 0.0 0.0 0.00 0.00 0.00 93 1015.8
20260506061527 56 185 0.0 0.0 0.00 0.00 0.00 92 1016.5
20260506044536 58 185 0.0 0.0 0.00 0.00 0.00 88 1016.8
20260506043014 58 185 0.0 0.0 0.00 0.00 0.00 87 1017.2
20260506041520 59 185 0.0 0.0 0.00 0.00 0.00 86 1017.2
20260506040006 59 185 0.0 2.0 0.00 0.00 0.00 87 1017.2
20260506034507 59 185 0.0 0.0 0.00 0.00 0.00 86 1017.1
20260506033011 60 185 0.0 0.0 0.00 0.00 0.00 85 1016.9
20260506031517 60 185 0.0 0.0 0.00 0.00 0.00 85 1017.0
20260506030022 61 185 0.0 2.0 0.00 0.00 0.00 82 1017.0
20260506024510 61 185 0.0 2.0 0.00 0.00 0.00 82 1017.0
20260506023016 62 122 0.0 0.0 0.00 0.00 0.00 81 1017.1
20260506021513 62 122 0.0 0.0 0.00 0.00 0.00 81 1017.1
20260506020016 63 122 0.0 0.0 0.00 0.00 0.00 78 1017.1
20260506014505 64 114 0.0 1.0 0.00 0.00 0.00 77 1016.8
20260506013006 65 150 1.0 5.0 0.00 0.00 0.00 75 1016.9
20260506011530 65 178 2.0 4.0 0.00 0.00 0.00 74 1016.5
20260506010014 66 158 2.0 5.0 0.00 0.00 0.00 72 1016.6
20260506004513 67 248 1.0 7.0 0.00 0.00 0.00 70 1016.7
20260506003005 67 147 3.0 6.0 0.00 0.00 0.00 69 1016.3
20260506001508 68 203 2.0 9.0 0.00 0.00 0.00 68 1016.5
20260506000014 69 149 4.0 12.0 0.00 0.00 0.00 66 1016.6
20260505234519 70 169 4.0 11.0 0.00 0.00 0.00 65 1016.5
20260505233004 71 192 4.0 10.0 0.00 0.00 0.00 63 1016.4
20260505231506 72 148 7.0 13.0 0.00 0.00 0.00 60 1016.2
20260505230011 72 157 7.0 15.0 0.00 0.00 0.00 57 1016.1
20260505224516 73 126 5.0 13.0 0.00 0.00 0.00 57 1016.2
20260505223021 74 138 5.0 13.0 0.00 0.00 0.00 56 1016.1
20260505221505 74 159 8.0 15.0 0.00 0.00 0.00 54 1016.2
20260505220022 75 184 4.0 14.0 0.00 0.00 0.00 54 1016.4
20260505214525 75 179 6.0 12.0 0.00 0.00 0.00 52 1016.2
20260505213022 75 221 8.0 13.0 0.00 0.00 0.00 52 1016.4
20260505211524 76 253 4.0 15.0 0.00 0.00 0.00 52 1016.4
20260505210008 76 140 8.0 16.0 0.00 0.00 0.00 51 1016.3
20260505204510 77 148 8.0 15.0 0.00 0.00 0.00 49 1016.3
20260505203016 77 155 7.0 22.0 0.00 0.00 0.00 49 1016.2
20260505201522 78 189 8.0 15.0 0.00 0.00 0.00 50 1016.4
20260505200024 78 214 7.0 16.0 0.00 0.00 0.00 49 1016.5
20260505194518 79 94 4.0 13.0 0.00 0.00 0.00 48 1016.6
20260505193015 78 166 7.0 16.0 0.00 0.00 0.00 47 1016.9
20260505191523 79 276 5.0 11.0 0.00 0.00 0.00 45 1017.4
20260505190024 78 194 4.0 11.0 0.00 0.00 0.00 48 1017.6
20260505184528 79 229 4.0 9.0 0.00 0.00 0.00 48 1017.7
20260505183017 78 110 4.0 12.0 0.00 0.00 0.00 49 1017.6
20260505181520 78 238 6.0 15.0 0.00 0.00 0.00 46 1017.4
20260505180024 79 118 2.0 12.0 0.00 0.00 0.00 49 1017.3
20260505174524 78 227 6.0 11.0 0.00 0.00 0.00 51 1017.4
20260505173008 78 135 6.0 12.0 0.00 0.00 0.00 50 1017.4
20260505171517 78 138 4.0 10.0 0.00 0.00 0.00 50 1017.5
20260505170020 76 227 4.0 10.0 0.00 0.00 0.00 52 1017.8
20260505164522 77 215 4.0 10.0 0.00 0.00 0.00 50 1018.0
20260505163029 77 238 2.0 6.0 0.00 0.00 0.00 54 1018.3
20260505161514 76 176 4.0 11.0 0.00 0.00 0.00 54 1018.4
20260505153024 75 152 5.0 11.0 0.00 0.00 0.00 58 1018.5
20260505151526 75 138 7.0 11.0 0.00 0.00 0.00 58 1018.3
20260505124514 63 146 0.0 2.0 0.00 0.00 0.00 83 1018.1